Evansville, IN

1:34 PM CDT on August 24, 2016 (GMT -0500)
Evansville Regional

Weather History for KEVV - February, 2013

Change the Weather History Date:

Friday, February 22, 2013

  Actual Average Record
Temperature  
Mean Temperature 40 °F 39 °F  
Max Temperature 46 °F 48 °F 72 °F (1922)
Min Temperature 33 °F 29 °F -6 °F (1963)
Degree Days  
Heating Degree Days 25 26  
Month to date heating degree days 635 644  
Since 1 July heating degree days 3200 3423  
Cooling Degree Days 0 0  
Month to date cooling degree days 0 0  
Year to date cooling degree days 0 0  
Moisture  
Dew Point 32 °F    
Average Humidity 79    
Maximum Humidity 92    
Minimum Humidity 65    
Precipitation  
Precipitation 0.03 in 0.11 in 2.05 in (1897)
Month to date precipitation 1.92 2.50  
Year to date precipitation 8.69 5.60  
Snow  
Snow 0.00 in 0.10 in 0.80 in (1967)
Month to date snowfall 1.3 3.1  
Since 1 July snowfall 12.3 10.0  
Snow Depth 0.00 in    
Sea Level Pressure  
Sea Level Pressure 29.97 in    
Wind  
Wind Speed 10 mph (WSW)    
Max Wind Speed 22 mph    
Max Gust Speed 28 mph    
Visibility 8 miles    
Events Rain    
T = Trace of Precipitation, MM = Missing Value Source: NWS Daily Summary

Daily Weather History Graph

Daily Weather History Graph

Search for Another Location

Airport or City:

Trip Planner

Search our weather history database for the weather conditions in past years. The results will help you decide how hot, cold, wet, or windy it might be!

Date:

Astronomy

Feb. 22, 2013 Rise Set
Actual Time 6:31 AM CST 5:36 PM CST
Civil Twilight 6:04 AM CST 6:03 PM CST
Nautical Twilight 5:33 AM CST 6:33 PM CST
Astronomical Twilight 5:03 AM CST 7:04 PM CST
Moon 2:49 PM CST (2/22) 4:13 AM CST (2/22)
Length of Visible Light 11h 58m
Length of Day
11h 05m
Waxing Gibbous, 90% of the Moon is Illuminated
Feb 22
Waxing Gibbous
Feb 25
Full
Mar 4
Last Quarter
Mar 11
New
Mar 19
First Quarter

Hourly Weather History & Observations

Time (CST) Temp. Windchill Dew Point Humidity Pressure Visibility Wind Dir Wind Speed Gust Speed Precip Events Conditions
12:54 AM 35.1 °F 29.3 °F 32.0 °F 89% 29.87 in 3.0 mi East 6.9 mph - 0.01 in Rain Light Rain
1:54 AM 36.0 °F 30.3 °F 33.1 °F 89% 29.86 in 4.0 mi ESE 6.9 mph - 0.01 in   Overcast
2:25 AM 35.6 °F 29.2 °F 33.8 °F 93% 29.85 in 2.5 mi SSE 8.1 mph - N/A   Overcast
2:44 AM 35.6 °F 31.7 °F 33.8 °F 93% 29.85 in 3.0 mi SE 4.6 mph - N/A   Overcast
2:54 AM 36.0 °F 32.1 °F 34.0 °F 93% 29.86 in 3.0 mi SSE 4.6 mph - N/A   Overcast
3:08 AM 35.6 °F 31.7 °F 33.8 °F 93% 29.83 in 2.5 mi SE 4.6 mph - 0.01 in   Overcast
3:37 AM 35.6 °F 32.8 °F 33.8 °F 93% 29.83 in 3.0 mi SSE 3.5 mph - 0.01 in   Overcast
3:52 AM 35.6 °F - 35.6 °F 100% 29.84 in 2.0 mi Calm Calm - 0.01 in   Overcast
3:54 AM 37.0 °F - 35.1 °F 93% 29.85 in 2.0 mi Calm Calm - 0.01 in   Overcast
4:54 AM 37.9 °F 32.7 °F 36.0 °F 93% 29.88 in 2.0 mi SW 6.9 mph - N/A   Overcast
5:09 AM 37.4 °F 30.8 °F 35.6 °F 93% 29.88 in 3.0 mi SW 9.2 mph - N/A   Overcast
5:46 AM 37.4 °F 28.5 °F 35.6 °F 93% 29.90 in 10.0 mi WSW 15.0 mph 20.7 mph N/A   Overcast
5:54 AM 37.9 °F 29.6 °F 35.1 °F 89% 29.91 in 10.0 mi WSW 13.8 mph - N/A   Overcast
6:54 AM 37.0 °F 28.9 °F 34.0 °F 89% 29.94 in 10.0 mi WSW 12.7 mph - N/A   Overcast
7:54 AM 36.0 °F 29.0 °F 33.1 °F 89% 29.97 in 10.0 mi WSW 9.2 mph 17.3 mph N/A   Overcast
8:44 AM 37.4 °F 31.4 °F 33.8 °F 87% 29.97 in 10.0 mi SSW 8.1 mph - N/A   Overcast
8:54 AM 37.9 °F 30.9 °F 34.0 °F 86% 29.99 in 10.0 mi SSW 10.4 mph - N/A   Overcast
9:54 AM 39.0 °F 31.4 °F 34.0 °F 82% 30.01 in 10.0 mi SSW 12.7 mph 20.7 mph N/A   Overcast
10:33 AM 39.2 °F 30.8 °F 33.8 °F 81% 30.00 in 10.0 mi WSW 15.0 mph - N/A   Overcast
10:54 AM 39.9 °F 30.2 °F 30.9 °F 70% 30.02 in 10.0 mi SW 20.7 mph 26.5 mph N/A   Overcast
11:54 AM 39.2 °F 29.6 °F 30.2 °F 70% 30.02 in 10.0 mi SW 19.6 mph 27.6 mph N/A   Overcast
12:54 PM 41.0 °F 34.7 °F 33.1 °F 73% 30.00 in 10.0 mi SW 10.4 mph - N/A   Overcast
1:54 PM 44.1 °F 37.7 °F 35.1 °F 71% 29.99 in 10.0 mi WSW 12.7 mph - N/A   Overcast
2:54 PM 46.0 °F 39.6 °F 35.1 °F 66% 29.99 in 10.0 mi WSW 15.0 mph 19.6 mph N/A   Mostly Cloudy
3:43 PM 44.6 °F 38.8 °F 33.8 °F 66% 29.98 in 10.0 mi WSW 11.5 mph - N/A   Mostly Cloudy
3:54 PM 44.1 °F 38.6 °F 34.0 °F 68% 29.99 in 10.0 mi WSW 10.4 mph - N/A   Mostly Cloudy
4:42 PM 44.6 °F 40.7 °F 33.8 °F 66% 29.98 in 10.0 mi West 6.9 mph - N/A   Overcast
4:54 PM 44.1 °F 39.5 °F 34.0 °F 68% 29.99 in 10.0 mi WNW 8.1 mph - N/A   Overcast
5:27 PM 42.8 °F 38.6 °F 33.8 °F 70% 29.99 in 10.0 mi West 6.9 mph - N/A   Overcast
5:54 PM 42.1 °F 35.2 °F 33.1 °F 70% 30.01 in 10.0 mi NNW 12.7 mph - N/A   Overcast
6:54 PM 37.0 °F 32.4 °F 30.0 °F 76% 30.03 in 10.0 mi WNW 5.8 mph - N/A   Overcast
7:54 PM 35.1 °F 29.3 °F 27.0 °F 72% 30.05 in 10.0 mi WNW 6.9 mph - N/A   Overcast
8:06 PM 35.6 °F 29.9 °F 26.6 °F 70% 30.05 in 10.0 mi WNW 6.9 mph - N/A   Overcast
8:54 PM 35.1 °F 27.9 °F 27.0 °F 72% 30.06 in 10.0 mi WNW 9.2 mph - N/A   Overcast
9:28 PM 35.6 °F 30.7 °F 26.6 °F 70% 30.07 in 10.0 mi West 5.8 mph - N/A   Overcast
9:54 PM 35.1 °F 30.1 °F 26.1 °F 70% 30.08 in 10.0 mi WNW 5.8 mph - N/A   Overcast
10:54 PM 34.0 °F 25.0 °F 25.0 °F 70% 30.07 in 10.0 mi WNW 12.7 mph - N/A   Overcast
11:54 PM 33.1 °F 24.4 °F 24.1 °F 70% 30.08 in 10.0 mi WNW 11.5 mph - N/A   Overcast